Погода в Мурманске

Погода в Мурманске : погода сейчас, прогноз погоды и архив. Всё, что Вы хотите узнать о погоде в Мурманске!

Поиск расширенной информации на нашем сайте:

Другие новости

Новости СМИ2

Главная страница сайта

Новости сайта

03.07.2017

Напоминаем, что на нашем специализированном сайте Метеоцентр.Азия вы можете получить высокодетализированные автоматические прогнозы погоды по пунктам России, СНГ и мира в авиационном формате (включающие направление и скорость ветра, видимость, явления погоды, количество и форму облачности, нижнюю и верхнюю границу облачности).


Погода в Мурманске - сегодня

Время (UTC), дата Ветер
(°,м/с) 
Видим.   Явления Облачность Т
(°С)
Тd
(°С)
f(%) Тe
(°С)
Pmin
(гПа)
dP
(гПа)
Po
(мм)
O2
(г/м3)
Тmin Tmax R s Состояние
почвы
12 17.01.18 190 (Ю) 4-5{11}  20000 м    6/0 средняя, верхняя 
[Ac trans|Ci fib]
-11.9 -14.8 79 -16  1013.2  1.2  755  319           
15 17.01.18 200 (Ю) 4-6  20000 м    8/0 средняя, верхняя 
[Ac trans|Ci fib]
-12.8 -14.5 87 -17  1013.8  0.6  755  321           
18 17.01.18 180 (Ю) 2-4  20000 м    6/0 верхняя 
[Ci fib]
-13.1 -14.9 86 -15  1014.4  0.6  756  321    -10.8       
21 17.01.18 190 (Ю) 2-3  1000 м  дымка [диам. изморози 6 мм]  ясно 
-13.7 -14.8 91 -16  1014.6  0.1  756  322           
00 18.01.18 200 (Ю) 2-3  0200 м  переохл. туман [диам. изморози 26 мм]  ?/?  
-14.1 -15.5 89 -16  1014.9  0.3  756  323           
03 18.01.18 210 (ЮЗ) 1-1  10 км  в посл. час туман [диам. изморози 33 мм]  3/0 верхняя 
[Ci fib]
-13 -14.3 90 -13  1015.3  0.4  756  321  -14.5    0.3     
06 18.01.18 190 (Ю) 1-1  0500 м  переохл. туман [диам. изморози 38 мм]  ?/?  
-13.2 -14.5 90 -13  1015.3  0.1  756  322  -14.5    0.3  16  неравномерный
сухой снег
100% 
09 18.01.18 360 (С) 2-2  2000 м  в посл. час туман [диам. изморози 41 мм]  9/9 600 м кучево-дожд. 
[Cb cap]
-11.5 -12.6 92 -13  1015.7  0.4  757  320           
12 18.01.18 тихо ()   10 км  слаб. ливневой снег{туман} [диам. изморози 41 мм]  9/9 600 м кучево-дожд. 
[Cb cap]
-9.5 -10.5 92 -10  1015.1  -0.6  756  317           
15 18.01.18 тихо ()   10 км  слаб. ливневой снег [диам. изморози 36 мм]  9/9 600 м кучево-дожд. 
[Cb cap]
-8.6 -9.5 93 -9  1014  -1  756  315      0.3     
18 18.01.18 150 (ЮВ) 1-3  20000 м  слаб. ливневой снег [диам. изморози 36 мм]  9/9 600 м кучево-дожд. 
[Cb cap]
-9 -9.8 94 -9  1013.5  -0.5  755  316    -8.3  0.3     
21 18.01.18 150 (ЮВ) 1-3  20000 м  {ливн. осадки} [диам. изморози 36 мм]  8/8 600 м кучево-дожд. 
[Cb cap]
-10.3 -11.6 90 -10  1012.9  -0.7  755  317           
00 19.01.18 040 (СВ) 2-3  20000 м  {ливн. осадки} [диам. изморози 36 мм]  8/8 600 м кучево-дожд. 
[Cb cap]
-10.8 -12.8 85 -13  1011.4  -1.4  754  317           
03 19.01.18 010 (С) 1-2  20000 м  слаб. ливневой снег [диам. изморози 6 мм]  9/9 600 м кучево-дожд. 
[Cb cap]
-10.1 -11.5 89 -10  1009.7  -1.7  752  316  -11.3         
06 19.01.18 140 (ЮВ) 1-2  10 км  слаб. снег{ливн. осадки} [диам. изморози 5 мм]  10/4 600 м средняя 
[Sc|Ac As]
-9 -10.2 91 -9  1008  -1.7  751  314  -11.3    0.6  17  неравномерный
сухой снег
100% 
09 19.01.18 180 (Ю) 5-8  4000 м  слаб. снег  10/3 300 м средняя 
[Frnb|Ac As]
-9.3 -10.6 90 -14  1008.1  -0.1  751  314           
12 19.01.18 170 (Ю) 5-8  20000 м  слаб. снег  9/3 300 м средняя, верхняя 
[Frnb|Ac As|Ci sp]
-9.6 -11.4 87 -14  1009.6  1.5  752  315           
15 19.01.18 180 (Ю) 4-5  20000 м  {снег}  9/0 средняя, верхняя 
[Ac As|Ci fib]
-11 -12.8 87 -15  1011.4  1.8  754  318         
18 19.01.18 210 (ЮЗ) 3-4  20000 м  {снег}  8/0 средняя, верхняя 
[Ac As|Ci fib]
-11.3 -13.1 87 -14  1013.2  1.8  755  319    -8.8     
21 19.01.18 190 (Ю) 3-4  20000 м    9/8 600 м средняя 
[Sc|Ac trans]
-11.7 -13 90 -15  1015  1.8  756  320           
00 20.01.18 200 (Ю) 4-6  20000 м    9/9 600 м средняя 
[Sc|Ac trans]
-9.9 -11.3 89 -14  1016.8  1.8  758  318           
03 20.01.18 200 (Ю) 2-3  20000 м    9/9 600 м 
[Sc]
-9.3 -11.2 86 -11  1017.6  0.8  758  317  -12.2         
06 20.01.18 тихо ()   20000 м  слаб. ливневой снег  10/6 600 м кучево-дожд., средняя 
[Cb cap|Ac As]
-7.6 -8.7 92 -8  1018.4  0.9  759  315  -12.2    0.0  18  неравномерный
сухой снег
100% 
09 20.01.18 тихо ()   20000 м  {ливн. осадки}  10/1 600 м средняя 
[Sc|Ac As]
-6.1 -7.8 88 -6  1019.2  0.9  760  314           
12 20.01.18 180 (Ю) 1-2  20000 м  {ливн. осадки}  10/8 600 м средняя 
[Sc|Ac As]
-5.8 -7.5 88 -5  1018.9  0.9  759  313           
Время (UTC), дата Ветер
(°,м/с) 
Видим.   Явления Облачность Т
(°С)
Тd
(°С)
f(%) Тe
(°С)
Pmin
(гПа)
dP
(гПа)
Po
(мм)
O2
(г/м3)
Тmin Tmax R s Состояние
почвы

Для получения пояснительной информации подведите курсор к названию столбца.

ПОГОДА в Мурманске - архив

Всё, что Вы хотите узнать о погоде в Мурманске - удобно и подробно!

Выберите нужную дату (начиная с 1 января 2015* года) и нажмите кнопку "Найти".
Будут отображены архивные сводки погоды по пункту Мурманск, начиная с указанной даты.


Отображать данные в формате CSV (для использования в таблицах Excel)


Внимание! Наш архив погоды предназначен исключительно для личного некоммерческого использования в познавательных целях. Если Вам необходимы официальные справки о состоянии погоды (для производственных, юридических, коммерческих и т.п. целей), обращайтесь в органы Росгидромета.

*Примечание: данная дата относится к архиву по метеостанциям СССР (Россия, СНГ, Балтия).
Архив по метеостанциям Зарубежной Европы и Азии (кроме Китая) хранится 10 дней, по другим регионам земного шара (Китай, Африка, Америка, Австралия, Океания) - 1 день.

Мурманск - район местоположения метеостанции


Название, широта, долгота, высота метеостанции:
Мурманск (город) 69°ш. 33.1°д. 51 м над ур. моря [Российская Федерация]

Дополнительная информация

В oтличие oт бoльшинства пoгoдных сайтoв мы публикуем пoдрoбную метеoинфoрмацию в детальнoм прoфессиoнальнoм фoрмате.

Характеристики температуры и влажнoсти вoздуха измеряются на высoте 2 м в тени вдали oт зданий и деревьев.
Скoрoсть ветра измеряется на высoте 10 м (на урoвне рoста челoвека скoрoсть ветра ниже в 1.5-2 раза). Если метеoстанция нахoдится в гoрoде или в лесу, тo скoрoсть ветра занижена на 2-4 м/с пo сравнению с oткрытым местoм. Скoрoсть ветра над акватoриями крупных рек и oзёр, а также на вершинах хoлмoв на 2-5 м/с выше, чем в oбычных услoвиях.
Атмoсфернoе давление в разных тoчках местнoсти мoжет значительнo oтличаться oт давления на метеoстанции, в зависимoсти oт услoвий рельефа (при пoдъёме на 10 м давление пoнижается примернo на 1 мм рт.ст.).